Location: T�bingen+AIT
(48.5342°N, 9.0700°E)
Time: 15:08:47
(UTC+01:00)

ERS-1 Rocket - Pass Details

Date: 14 September 2017
Orbit: 753 x 758 km, 98.6° (Epoch: 17 November)

Event Time Altitude Azimuth Distance (km) Brightness Sun altitude
Exits shadow 21:50:19 49° 129° (SE) 966 3.1 -21.4°
Maximum altitude 21:51:29 66° 72° (ENE) 826 2.9 -21.6°
Drops below altitude 10° 21:56:29 10° 351° (N) 2,291 6.0 -22.3°
Sets 21:58:48 0° 348° (NNW) 3,221 6.9 -22.6°
